This is the latest recevied weather packets stored in our database for station/object KY4GW. If no packets are shown the sender has not sent any weather packets the latest 10 day(s).
| Time | Temp. | Humidity | Pressure | Rain* | Wind** | Luminosity | Snow |
|---|---|---|---|---|---|---|---|
| 1777741178 | 12.78° C | 51% | 1020.4 hPa | 0 mm | - | 297 W/m² | - |
| 1777740876 | 12.78° C | 51% | 1020.4 hPa | 0 mm | - | 297 W/m² | - |
| 1777740572 | 12.22° C | 52% | 1020.4 hPa | 0 mm | - | 687 W/m² | - |
| 1777740269 | 11.67° C | 48% | 1020.7 hPa | 0 mm | - | 637 W/m² | - |
| 1777739965 | 11.67° C | 51% | 1020.7 hPa | 0 mm | - | 292 W/m² | - |
| 1777739661 | 11.67° C | 48% | 1020.7 hPa | 0 mm | - | 192 W/m² | - |
| 1777739360 | 11.67° C | 50% | 1020.7 hPa | 0 mm | - | 213 W/m² | - |
| 1777739056 | 11.67° C | 49% | 1020.7 hPa | 0 mm | - | 326 W/m² | - |
| 1777738753 | 11.67° C | 53% | 1020.7 hPa | 0 mm | - | 282 W/m² | - |
| 1777738449 | 12.22° C | 53% | 1020.7 hPa | 0 mm | - | 314 W/m² | - |
| 1777738147 | 11.67° C | 55% | 1020.7 hPa | 0 mm | - | 350 W/m² | - |
| 1777737845 | 12.22° C | 49% | 1020.7 hPa | 0 mm | - | 251 W/m² | - |
| 1777737544 | 12.78° C | 53% | 1020.7 hPa | 0 mm | - | 296 W/m² | - |
| 1777737241 | 12.22° C | 52% | 1020.7 hPa | 0 mm | - | 453 W/m² | - |
| 1777736937 | 11.67° C | 52% | 1020.7 hPa | 0 mm | - | 837 W/m² | - |
| 1777736032 | 12.78° C | 50% | 1020.7 hPa | 0 mm | - | 823 W/m² | - |
| 1777735728 | 12.22° C | 49% | 1020.7 hPa | 0 mm | - | 790 W/m² | - |
| 1777735426 | 11.67° C | 52% | 1020.7 hPa | 0 mm | - | 756 W/m² | - |
| 1777735123 | 11.67° C | 51% | 1020.7 hPa | 0 mm | - | 737 W/m² | - |
| 1777734820 | 11.11° C | 54% | 1021.1 hPa | 0 mm | - | 706 W/m² | - |
| 1777734518 | 11.11° C | 53% | 1021.1 hPa | 0 mm | - | 692 W/m² | - |
| 1777734214 | 11.11° C | 55% | 1021.1 hPa | 0 mm | - | 679 W/m² | - |
| 1777733910 | 11.11° C | 52% | 1021.1 hPa | 0 mm | - | 668 W/m² | - |
| 1777733607 | 11.67° C | 51% | 1021.1 hPa | 0 mm | - | 654 W/m² | - |
| 1777733303 | 10.56° C | 50% | 1021.1 hPa | 0 mm | - | 639 W/m² | - |
* Rain latest hour (hover to see other rain measurements)
** Current wind speed in m/s (hover to see current wind gust speed)